Temperature
14 15 15 15 15 14 14 13 13 14 14 14 14 14 14 14 14 14 14 15 15 15 15 14 14 14 14 14 14 14 14 13 13 13 13 13 13 13 13 13 13 13 13 13
14 14 14 14 14 14 14 14 13 13 14 14 14 14 14 14 14 14 14 14 14 14 14 14 14 14 14 14 14 13 13 13 13 13 13 13 13 13 13 12 12 12 12 12
12 13 14 14 14 14 14 14 13 13 14 13 13 13 13 14 14 14 14 14 14 14 14 14 14 14 14 14 13 13 13 13 13 13 13 13 12 12 12 12 12 12 12 12
11 13 14 14 14 14 14 13 13 13 13 12 13 14 14 14 14 14 14 14 14 14 14 14 14 14 13 13 13 13 13 12 12 12 12 12 12 12 12 12 12 12 12 12
10 12 12 13 14 13 13 13 13 12 12 12 13 13 13 14 14 14 14 14 14 14 14 14 13 13 13 13 13 13 13 12 12 12 12 11 11 12 12 12 12 12 11 11
10 12 12 13 14 14 14 13 13 12 11 12 12 11 11 13 13 13 13 13 13 13 13 13 13 13 13 13 12 12 12 12 12 12 11 11 11 11 11 11 11 11 11 11
10 11 11 12 12 13 13 12 13 13 12 12 11 11 13 13 13 13 13 13 13 13 13 13 13 12 12 12 12 12 12 11 11 11 11 11 11 11 11 11 11 11 11 11
9 10 11 12 12 12 12 13 13 13 13 12 12 12 12 12 12 12 12 12 12 12 12 12 12 12 12 12 12 11 11 11 11 11 11 10 10 11 10 10 10 11 11 11
9 10 11 12 12 13 13 12 13 12 12 12 12 12 12 12 12 12 12 12 12 12 12 12 12 12 11 11 11 11 11 10 10 10 10 10 10 10 10 10 10 10 10 10
8 9 11 12 12 12 12 12 12 12 12 12 12 12 12 12 12 11 11 11 11 11 11 11 11 11 11 11 11 10 10 10 10 10 10 10 10 9 10 10 10 9 10 10
8 9 10 12 12 12 12 12 12 12 12 12 12 11 11 11 11 11 11 11 11 10 10 10 11 10 10 10 10 10 10 10 10 10 10 9 9 9 9 9 9 9 9 9
9 10 10 11 12 12 11 11 11 11 11 11 11 11 11 11 11 11 11 10 10 10 10 10 10 10 10 10 10 10 10 9 9 9 9 9 9 9 9 9 9 9 9 9
11 12 11 11 11 11 11 11 11 11 11 11 11 11 11 10 10 10 10 10 10 10 10 10 10 10 10 9 9 9 9 9 9 9 9 9 8 8 8 8 8 8 8 8
11 11 10 11 11 10 10 10 10 10 10 10 10 10 10 10 10 10 10 10 10 10 9 9 9 9 9 9 9 9 8 8 8 8 8 8 8 8 8 8 8 8 8 8
11 11 10 10 10 10 10 10 10 10 9 9 9 9 9 9 9 9 9 9 9 9 9 9 9 9 9 8 8 8 8 8 8 8 8 7 7 7 7 7 7 7 7 7
10 10 10 9 9 9 9 9 9 9 9 9 9 9 9 8 8 9 9 9 9 9 9 8 8 8 8 8 8 8 8 7 7 7 7 7 7 7 7 7 7 6 6 6
9 9 9 9 9 9 8 8 8 8 8 8 8 8 8 8 8 8 8 8 8 8 8 8 8 7 7 7 7 7 7 7 7 7 6 6 6 6 6 6 6 6 6 6
9 9 9 9 9 8 8 8 8 8 8 7 7 7 7 7 7 7 7 7 7 7 7 7 7 7 7 7 7 7 6 6 6 6 6 6 6 6 6 5 5 5 5 5
9 9 9 8 8 8 8 8 7 7 7 7 7 7 7 7 7 7 7 7 7 7 7 7 7 7 6 6 6 6 6 6 6 6 6 5 5 5 5 5 5 5 5 5
8 8 8 8 8 7 7 7 7 7 7 6 6 6 6 6 6 6 6 6 6 6 6 6 6 6 6 6 6 5 5 5 5 5 5 5 5 5 4 4 4 4 4 4
7 7 7 7 7 7 7 7 7 6 6 6 6 6 6 6 5 5 5 5 5 5 5 5 5 5 5 5 5 5 5 5 5 5 4 4 4 4 4 4 4 4 4 4
7 7 7 6 6 6 6 6 6 6 6 6 6 5 5 5 5 5 5 5 5 5 5 5 5 5 5 5 5 4 4 4 4 4 4 4 4 4 3 3 3 3 3 3
6 6 6 6 6 6 6 6 5 5 5 5 5 5 5 5 5 4 4 4 4 4 4 4 4 4 4 4 4 4 4 4 4 4 3 3 3 3 3 3 3 3 3 3
6 6 6 6 5 5 5 5 5 5 5 5 5 4 4 4 4 4 4 4 4 4 4 4 4 4 4 4 4 4 3 3 3 3 3 3 3 3 3 3 3 3 3 3
5 5 5 5 5 5 5 5 5 5 5 4 4 4 4 4 4 4 3 3 3 3 3 3 3 3 3 3 3 3 3 3 3 3 3 3 3 2 2 2 2 2 2 2
5 5 5 5 5 5 4 4 4 4 4 4 4 4 4 3 3 3 3 3 3 3 3 3 3 3 3 3 3 3 3 2 2 2 2 2 2 2 2 2 2 2 2 2
4 4 4 4 4 4 4 4 4 4 3 3 3 3 3 3 3 3 3 3 3 2 2 2 2 2 2 2 2 2 2 2 2 2 2 2 2 2 2 2 2 2 2 2
Wind_Speed
5 5 3 5 6 5 6 7 8 8 9 10 9 6 5 3 2 1 1 1 2 2 2 1 1 1 2 2 3 3 3 3 4 3 3 3 2 2 2 3 3 2 2 1
3 2 3 5 7 6 6 6 7 7 9 8 4 1 1 2 3 3 3 3 3 2 2 2 2 2 2 2 2 3 3 4 3 2 3 3 3 2 2 2 2 2 2 2
3 5 3 5 5 5 4 4 5 7 8 3 2 3 4 4 4 4 4 3 3 3 3 3 3 3 3 2 2 3 3 3 3 3 3 4 3 3 3 3 2 2 2 2
1 2 4 6 3 3 4 4 4 5 5 4 4 4 2 2 4 4 3 3 3 3 2 2 2 2 2 2 2 2 2 2 3 3 3 3 3 3 3 2 3 3 2 2
2 2 7 6 3 3 3 4 3 4 4 3 2 3 3 2 2 4 4 4 3 3 2 1 1 2 2 1 2 2 2 3 3 3 3 3 3 3 3 2 2 2 2 2
3 3 6 6 3 2 2 4 3 2 2 2 1 1 5 4 2 2 2 2 2 1 1 1 1 1 2 2 2 3 4 4 3 3 4 4 4 3 2 3 3 2 2 2
4 5 7 6 4 1 3 5 4 2 3 2 3 5 5 3 3 2 2 1 1 1 1 2 2 2 2 2 4 4 3 2 3 3 4 4 3 3 2 2 2 2 2 2
4 4 7 3 1 3 5 4 4 4 3 3 4 4 3 3 2 2 1 0 0 1 2 2 2 3 3 4 4 2 1 2 2 2 3 3 3 3 2 3 3 2 1 2
7 7 4 2 3 3 2 4 4 3 4 3 3 4 4 3 2 2 1 1 1 1 1 2 2 3 4 4 2 2 2 2 3 2 2 2 3 4 3 3 3 2 2 2
4 6 5 5 4 4 4 5 5 4 4 3 4 4 4 3 2 2 2 2 1 1 1 2 2 2 3 2 1 2 2 2 2 2 2 2 2 3 3 3 3 3 3 3
5 7 5 4 4 4 4 3 2 3 3 3 3 4 3 3 2 2 1 2 2 2 2 3 3 3 2 2 2 2 2 2 2 2 3 2 2 2 3 4 4 4 4 4
7 6 5 6 5 4 4 4 3 3 4 4 3 3 3 3 2 2 2 2 2 2 2 3 2 3 3 2 2 3 2 2 2 2 2 2 2 1 1 2 3 3 3 3
7 5 5 5 5 4 3 4 3 3 3 4 4 3 3 3 2 1 2 2 3 3 3 3 2 3 3 2 2 3 3 3 2 2 2 2 2 2 2 2 2 2 2 2
5 3 3 4 5 4 3 2 2 3 3 3 2 2 1 1 1 1 2 3 3 2 2 2 2 3 3 1 2 2 2 2 2 3 3 3 3 3 3 2 2 2 2 2
5 5 5 4 3 3 2 1 2 3 3 3 2 1 1 1 2 3 3 2 1 1 2 2 2 3 3 2 2 2 2 2 2 2 2 2 2 2 2 2 2 2 1 2
3 2 2 2 3 2 1 1 1 2 2 2 2 2 2 1 2 2 2 1 1 2 3 2 2 3 2 2 2 2 3 3 2 2 2 2 2 2 2 2 2 2 2 2
3 3 3 3 3 3 3 3 2 2 2 2 2 2 2 2 2 2 2 2 2 2 2 2 3 3 2 2 2 2 2 3 3 2 2 2 2 3 3 3 3 3 3 3
5 5 5 5 5 4 3 2 2 2 2 2 1 1 1 1 1 3 3 2 1 2 3 3 3 2 2 2 2 2 2 2 2 2 2 2 2 3 3 3 4 4 3 3
2 3 2 3 3 3 3 3 2 2 2 1 0 1 2 2 2 2 2 1 1 3 4 4 4 3 3 3 2 2 2 2 2 2 2 3 3 3 3 4 4 4 4 3
1 1 1 1 1 1 2 2 1 1 1 1 1 0 1 2 2 2 1 1 2 3 4 4 3 3 3 3 3 2 2 2 2 2 2 3 3 3 4 4 4 4 4 4
1 1 1 0 0 1 1 1 1 1 1 1 2 2 2 2 2 1 1 3 4 4 4 5 3 3 3 3 2 1 2 2 2 3 3 3 4 4 4 4 4 5 5 5
1 1 1 0 0 1 1 0 1 1 1 1 1 1 1 2 2 2 2 3 4 5 3 3 2 3 4 3 1 1 2 3 3 3 3 4 4 4 4 5 5 5 5 5
2 2 2 1 1 1 1 1 1 1 1 2 2 2 2 3 2 2 3 4 3 5 4 3 4 6 6 3 2 2 3 3 4 4 4 4 4 5 5 5 5 5 5 5
2 2 2 2 1 1 1 2 2 2 2 2 2 3 3 2 3 3 3 5 5 5 3 5 7 7 6 3 2 3 3 4 4 4 4 4 4 4 5 5 5 5 5 5
2 2 2 2 2 2 3 2 1 1 1 2 2 3 2 3 3 4 3 3 5 5 4 6 8 7 4 3 3 3 4 4 5 4 4 4 5 5 5 5 5 5 5 5
3 3 3 3 3 3 3 2 2 2 2 2 3 2 2 2 2 3 3 3 4 5 4 4 5 5 4 4 4 4 4 5 5 5 5 5 5 5 5 5 6 6 6 6
2 2 2 2 2 3 3 3 3 3 3 3 3 3 3 3 2 3 3 3 3 3 4 4 4 4 4 4 4 4 5 4 4 5 5 5 5 5 6 6 6 5 5 5
Wind_Direction
242 252 231 238 251 222 207 208 212 241 245 262 262 260 261 236 203 197 234 231 222 223 240 264 275 247 207 208 193 181 174 190 204 201 184 178 173 173 168 167 173 175 165 184
285 277 258 265 265 243 232 226 229 251 263 263 262 248 252 226 200 207 227 234 245 250 238 249 251 242 227 221 203 180 187 213 212 184 173 173 180 173 164 165 166 164 178 189
269 307 343 279 251 222 221 217 207 233 253 284 286 245 226 218 213 217 226 230 235 239 226 231 240 227 216 220 193 176 191 205 199 192 192 188 188 170 178 186 174 186 198 199
249 3 253 247 250 211 222 253 244 253 273 262 251 252 251 220 214 229 231 230 238 244 238 234 246 236 211 173 160 166 177 191 188 187 197 191 178 184 200 194 191 203 211 216
152 236 274 286 263 205 211 272 259 251 278 296 332 9 329 278 238 230 227 228 229 232 230 212 240 219 173 166 168 174 198 197 193 184 188 185 185 197 200 192 208 214 209 208
153 201 244 255 278 277 145 274 274 216 250 286 51 336 275 288 285 280 268 243 239 224 182 194 245 192 166 185 191 214 223 215 202 192 192 197 202 203 201 199 215 210 217 221
189 221 259 266 293 78 171 258 286 260 249 234 228 236 256 279 293 279 268 265 261 172 208 237 231 167 182 211 226 236 234 218 200 199 205 205 204 201 195 196 194 205 224 248
170 203 253 286 99 176 232 282 290 282 263 251 265 276 275 276 274 270 269 296 225 204 253 252 208 175 199 238 247 233 192 200 208 211 214 204 192 197 187 179 184 204 221 265
196 218 250 265 237 267 263 277 282 279 276 253 267 275 276 273 267 263 239 224 232 213 257 277 228 196 216 247 233 184 176 212 221 215 212 194 188 191 184 182 191 206 209 236
254 262 262 269 274 285 271 268 276 274 267 251 252 254 262 259 254 255 263 250 239 211 252 284 271 242 237 245 183 167 194 233 235 214 222 207 199 195 192 200 205 210 216 234
258 275 295 282 267 283 297 303 308 312 300 272 250 261 260 261 258 240 250 256 230 216 237 263 268 266 266 242 180 185 208 232 236 214 208 207 214 215 213 217 211 209 216 214
235 237 231 263 273 282 290 291 287 306 315 305 266 257 267 267 265 241 229 241 233 240 247 267 276 283 286 252 193 185 212 235 235 215 207 200 205 266 293 252 260 249 235 219
233 248 240 266 283 278 268 279 289 289 279 288 286 260 246 256 262 241 224 225 229 236 248 262 274 290 294 270 205 198 216 232 234 213 204 208 204 204 259 319 328 302 281 253
233 236 264 268 274 285 283 292 317 326 318 305 291 281 246 252 267 255 248 244 235 230 248 246 248 276 285 266 213 216 221 231 229 219 209 210 212 214 212 224 267 296 300 282
241 226 232 257 276 289 297 328 353 341 338 338 343 348 311 252 256 266 270 260 240 262 261 250 257 280 286 251 217 220 226 232 230 221 209 207 205 205 209 213 225 246 291 310
229 237 234 244 259 275 286 274 268 296 307 311 321 319 305 280 274 285 291 247 183 259 268 261 262 270 261 243 236 236 240 252 243 220 204 202 201 206 214 219 228 235 241 245
190 227 236 247 248 250 249 247 233 244 267 282 288 309 332 350 346 322 305 289 251 257 260 253 265 282 271 251 239 242 248 257 264 250 221 212 209 218 222 222 230 238 246 248
200 212 212 212 220 232 250 251 237 234 243 266 293 315 310 292 278 285 294 301 316 315 302 286 285 296 287 270 250 240 239 246 240 236 237 231 227 223 226 231 235 240 251 250
193 202 217 223 220 215 220 228 235 236 240 247 267 267 264 264 268 287 308 318 307 299 302 303 308 311 291 280 271 233 228 237 247 242 233 242 238 232 234 238 242 243 242 240
174 177 181 239 233 195 212 226 217 218 229 185 177 261 307 311 310 310 330 303 279 274 291 310 315 300 286 282 276 239 234 237 240 239 237 234 236 241 245 248 247 246 244 242
178 149 126 90 333 280 230 211 189 211 242 189 184 214 256 290 304 309 314 304 303 308 312 319 322 299 290 290 283 252 241 242 242 239 237 238 243 247 249 251 252 250 249 250
194 160 176 193 5 309 302 219 172 179 203 240 245 247 278 300 307 308 282 269 286 303 313 305 296 297 306 309 288 258 251 252 254 251 245 243 245 247 248 249 250 254 255 252
209 201 203 221 233 254 294 287 218 205 220 235 246 252 255 260 256 261 288 290 294 303 314 303 303 306 310 311 288 265 259 256 256 256 252 250 248 247 249 251 252 253 253 256
212 217 224 230 202 188 256 270 261 248 240 243 244 243 244 262 278 262 256 286 301 306 303 300 306 307 310 309 288 274 266 261 258 258 257 254 252 251 252 256 258 257 255 255
216 219 217 210 221 238 241 247 263 262 260 269 268 263 252 234 245 272 281 281 292 303 304 304 307 309 307 292 282 276 272 267 266 265 259 258 257 256 257 256 255 256 256 255
229 233 235 233 235 240 236 225 235 247 247 270 284 277 275 275 269 274 277 280 282 295 299 297 298 300 294 285 280 279 276 280 282 276 268 263 260 259 261 260 258 257 257 258
233 242 252 267 265 246 230 221 226 236 237 243 266 273 272 274 274 274 275 279 282 283 284 287 289 288 287 284 283 282 282 280 276 273 270 267 264 262 262 261 263 263 263 261
Height
1520 1517 1517 1517 1516 1517 1521 1522 1526 1520 1516 1508 1504 1503 1502 1502 1502 1503 1503 1504 1504 1504 1505 1505 1505 1505 1505 1505 1506 1507 1508 1510 1511 1512 1514 1515 1516 1517 1518 1518 1519 1520 1521 1521
1520 1516 1516 1516 1513 1513 1514 1514 1515 1513 1511 1502 1501 1501 1501 1501 1501 1501 1501 1502 1503 1503 1503 1503 1503 1503 1503 1503 1504 1504 1505 1507 1508 1510 1511 1512 1513 1514 1515 1516 1516 1517 1518 1518
1526 1520 1516 1519 1511 1510 1509 1508 1509 1510 1505 1500 1500 1499 1499 1499 1499 1499 1500 1501 1501 1501 1501 1502 1502 1502 1501 1501 1502 1502 1503 1504 1505 1507 1508 1509 1511 1512 1513 1513 1514 1514 1515 1515
1528 1524 1525 1514 1504 1504 1505 1504 1504 1502 1500 1499 1498 1498 1498 1498 1498 1498 1498 1499 1500 1500 1500 1500 1500 1500 1500 1500 1500 1500 1501 1502 1503 1504 1505 1507 1508 1509 1510 1511 1511 1512 1512 1513
1530 1529 1522 1510 1503 1503 1504 1504 1501 1500 1499 1498 1497 1497 1497 1497 1497 1497 1497 1498 1498 1498 1498 1498 1498 1498 1498 1498 1498 1498 1498 1499 1500 1501 1502 1503 1504 1506 1507 1508 1508 1509 1509 1510
1529 1526 1524 1509 1501 1499 1502 1505 1499 1498 1497 1497 1496 1500 1497 1495 1495 1495 1496 1496 1496 1496 1496 1496 1497 1497 1496 1496 1496 1496 1496 1497 1498 1499 1500 1500 1502 1503 1504 1505 1505 1506 1506 1507
1526 1525 1516 1504 1500 1500 1509 1506 1497 1496 1495 1495 1496 1496 1494 1493 1493 1493 1493 1493 1493 1493 1493 1494 1494 1494 1494 1494 1493 1494 1494 1495 1495 1496 1497 1498 1499 1500 1501 1501 1502 1503 1503 1504
1524 1524 1517 1500 1500 1503 1502 1497 1495 1494 1493 1493 1493 1492 1491 1491 1491 1491 1490 1491 1491 1491 1491 1491 1491 1491 1491 1491 1492 1492 1492 1492 1492 1493 1494 1494 1495 1496 1497 1498 1498 1499 1499 1500
1513 1510 1501 1499 1499 1498 1497 1495 1493 1492 1491 1491 1490 1489 1489 1488 1488 1488 1488 1489 1489 1488 1488 1488 1489 1489 1488 1489 1489 1489 1489 1489 1489 1490 1490 1491 1491 1492 1493 1493 1494 1494 1495 1495
1506 1500 1497 1496 1496 1495 1494 1493 1491 1491 1489 1489 1488 1487 1486 1486 1485 1485 1486 1486 1486 1486 1485 1486 1486 1486 1486 1486 1486 1486 1486 1486 1486 1487 1487 1487 1488 1488 1489 1489 1490 1490 1490 1491
1503 1497 1495 1493 1493 1492 1491 1490 1489 1488 1487 1486 1485 1484 1483 1483 1482 1482 1483 1483 1483 1483 1483 1483 1483 1483 1483 1484 1484 1483 1483 1483 1483 1483 1483 1484 1484 1484 1484 1485 1486 1486 1487 1487
1498 1493 1493 1491 1490 1489 1488 1487 1486 1485 1484 1483 1483 1481 1481 1480 1480 1480 1480 1480 1481 1481 1480 1480 1480 1480 1480 1480 1480 1480 1479 1479 1479 1479 1479 1480 1480 1480 1481 1482 1482 1483 1483 1483
1489 1489 1489 1487 1487 1486 1485 1484 1483 1482 1481 1480 1479 1479 1478 1478 1478 1478 1477 1478 1478 1477 1477 1477 1477 1477 1477 1477 1477 1476 1476 1475 1475 1475 1475 1475 1476 1476 1476 1477 1478 1478 1478 1479
1486 1486 1485 1484 1483 1483 1482 1481 1481 1479 1479 1478 1477 1476 1476 1475 1475 1475 1475 1475 1475 1475 1474 1474 1474 1474 1474 1474 1473 1473 1473 1472 1472 1471 1471 1471 1472 1472 1472 1472 1472 1472 1473 1474
1482 1482 1481 1480 1480 1479 1479 1478 1478 1477 1476 1475 1475 1474 1473 1473 1472 1472 1472 1472 1472 1472 1471 1471 1470 1470 1471 1471 1470 1470 1469 1468 1468 1468 1467 1468 1468 1468 1468 1468 1468 1468 1468 1469
1477 1478 1477 1477 1476 1476 1476 1475 1475 1474 1474 1473 1472 1471 1471 1471 1470 1470 1470 1469 1469 1468 1468 1468 1467 1467 1467 1467 1466 1466 1465 1464 1464 1464 1464 1464 1464 1464 1464 1464 1464 1464 1464 1464
1473 1473 1473 1473 1473 1473 1473 1473 1472 1472 1472 1471 1470 1469 1469 1468 1468 1467 1467 1466 1466 1465 1465 1464 1464 1463 1463 1462 1462 1461 1461 1460 1460 1460 1460 1460 1459 1460 1460 1460 1459 1459 1460 1460
1470 1470 1470 1470 1470 1470 1470 1470 1470 1470 1469 1469 1468 1467 1467 1466 1465 1464 1464 1463 1462 1462 1461 1461 1460 1460 1459 1458 1458 1457 1457 1456 1456 1455 1455 1455 1455 1455 1455 1455 1455 1455 1455 1455
1467 1467 1467 1467 1467 1467 1467 1467 1467 1467 1467 1466 1465 1465 1464 1464 1463 1462 1461 1460 1459 1458 1458 1458 1457 1456 1455 1455 1454 1453 1452 1452 1451 1451 1451 1451 1450 1450 1450 1450 1450 1450 1450 1450
1465 1465 1465 1465 1465 1465 1464 1464 1464 1464 1464 1464 1463 1462 1462 1461 1460 1459 1458 1457 1456 1456 1455 1455 1454 1453 1452 1451 1450 1449 1448 1447 1447 1446 1446 1446 1445 1445 1445 1445 1445 1445 1445 1445
1463 1463 1462 1462 1462 1462 1462 1462 1462 1461 1461 1461 1461 1460 1459 1459 1458 1457 1455 1454 1454 1454 1452 1451 1450 1449 1448 1447 1446 1445 1444 1444 1443 1442 1442 1441 1441 1440 1440 1440 1440 1440 1439 1439
1461 1460 1460 1460 1460 1460 1460 1460 1459 1459 1459 1458 1458 1458 1457 1456 1455 1454 1453 1452 1451 1450 1449 1448 1447 1446 1445 1444 1442 1441 1440 1440 1439 1438 1437 1437 1436 1436 1435 1435 1435 1434 1434 1434
1458 1458 1458 1458 1458 1457 1457 1457 1457 1457 1456 1455 1455 1454 1454 1453 1452 1451 1450 1450 1448 1447 1446 1445 1444 1443 1441 1440 1438 1437 1436 1435 1434 1434 1433 1432 1432 1431 1431 1430 1430 1429 1429 1428
1455 1456 1456 1456 1455 1455 1454 1454 1454 1454 1453 1453 1452 1452 1451 1450 1449 1448 1447 1446 1445 1444 1442 1441 1440 1439 1437 1435 1434 1433 1432 1431 1430 1429 1428 1427 1427 1426 1425 1425 1424 1424 1423 1423
1452 1452 1452 1452 1452 1451 1451 1451 1450 1450 1450 1449 1449 1448 1448 1447 1446 1444 1443 1442 1441 1440 1439 1437 1436 1435 1433 1431 1430 1428 1427 1426 1425 1424 1423 1422 1422 1421 1420 1419 1419 1418 1417 1417
1449 1449 1449 1449 1448 1448 1448 1447 1446 1446 1446 1445 1445 1444 1444 1443 1442 1441 1440 1438 1437 1436 1435 1433 1432 1430 1429 1427 1425 1424 1423 1422 1421 1419 1418 1418 1417 1416 1415 1414 1413 1413 1412 1411
1445 1445 1445 1445 1445 1444 1444 1443 1443 1442 1442 1441 1441 1440 1440 1439 1438 1437 1436 1435 1433 1432 1431 1429 1428 1426 1424 1423 1421 1420 1418 1417 1416 1415 1414 1413 1412 1411 1410 1409 1408 1407 1407 1406